Change the Weather History Date:

Saturday, December 3, 2011

  Actual Average Record
Temperature  
Mean Temperature 76 °F 74 °F  
Max Temperature 79 °F 79 °F 84 °F (1957)
Min Temperature 73 °F 69 °F 58 °F (1956)
Degree Days  
Heating Degree Days 0 0  
Month to date heating degree days 0 0  
Since 1 July heating degree days 0 0  
Cooling Degree Days 11 9  
Month to date cooling degree days 8 27  
Year to date cooling degree days 3896 3718  
Growing Degree Days 26 (Base 50)    
Moisture  
Dew Point 70 °F    
Average Humidity 83    
Maximum Humidity 87    
Minimum Humidity 79    
Precipitation  
Precipitation 0.00 in 0.15 in 3.15 in (1950)
Month to date precipitation 0.00 0.47  
Year to date precipitation 39.44 32.32  
Snow  
Snow 0.00 in - - ()
Month to date snowfall 0.0  
Since 1 July snowfall 0.0  
Snow Depth 0.00 in    
Sea Level Pressure  
Sea Level Pressure 30.05 in    
Wind  
Wind Speed 11 mph (East)    
Max Wind Speed 14 mph    
Max Gust Speed -    
Visibility 10 miles    
Events      
T = Trace of Precipitation, MM = Missing Value Source: NWS Daily Summary

Daily Weather History Graph

Daily Weather History Graph

Search for Another Location

Airport or City:

Trip Planner

Search our weather history database for the weather conditions in past years. The results will help you decide how hot, cold, wet, or windy it might be!

Date:

Astronomy

Dec. 03, 2011 Rise Set
Actual Time 7:00 AM HST 5:53 PM HST
Civil Twilight 6:36 AM HST 6:17 PM HST
Nautical Twilight 6:09 AM HST 6:45 PM HST
Astronomical Twilight 5:41 AM HST 7:12 PM HST
Moon 1:29 PM HST (12/3) 1:17 AM HST (12/3)
Length of Visible Light 11h 40m
Length of Day
10h 52m
Waxing Gibbous, 64% of the Moon is Illuminated
Dec 3
Waxing Gibbous
Dec 10
Full
Dec 17
Last Quarter
Dec 24
New
Dec 31
First Quarter

Hourly Weather History & Observations

Time (HST) Temp. Dew Point Humidity Pressure Visibility Wind Dir Wind Speed Gust Speed Precip Events Conditions
12:53 AM 74.7 °F 70.2 °F 86% 30.04 in 10.0 mi East 10.4 mph - N/A   Overcast
1:35 AM 75.2 °F 69.8 °F 83% 30.04 in 10.0 mi East 11.5 mph - N/A   Overcast
1:53 AM 74.8 °F 70.3 °F 86% 30.03 in 10.0 mi East 10.4 mph - N/A   Overcast
2:10 AM - - N/A% 30.03 in 10.0 mi East 10.4 mph - N/A   Overcast
2:17 AM 75.2 °F 69.8 °F 83% 30.03 in 10.0 mi East 11.5 mph - N/A   Overcast
2:43 AM 75.2 °F 69.8 °F 83% 30.01 in 10.0 mi East 10.4 mph - N/A   Overcast
2:53 AM 74.7 °F 70.0 °F 85% 30.01 in 10.0 mi East 10.4 mph - N/A   Overcast
3:03 AM 75.2 °F 69.8 °F 83% 30.01 in 10.0 mi East 10.4 mph - N/A   Overcast
3:53 AM 74.5 °F 70.2 °F 86% 30.01 in 10.0 mi East 12.7 mph - N/A   Overcast
4:19 AM 75.2 °F 69.8 °F 83% 30.01 in 10.0 mi East 13.8 mph - N/A   Mostly Cloudy
4:26 AM 75.2 °F 69.8 °F 83% 30.01 in 10.0 mi ESE 11.5 mph - N/A   Mostly Cloudy
4:53 AM 74.7 °F 70.3 °F 86% 30.01 in 10.0 mi East 12.7 mph - N/A   Scattered Clouds
5:53 AM 74.7 °F 70.0 °F 85% 30.02 in 9.0 mi ESE 5.8 mph - N/A   Mostly Cloudy
6:41 AM 73.4 °F 69.8 °F 88% 30.04 in 9.0 mi ENE 6.9 mph - N/A   Mostly Cloudy
6:53 AM 73.9 °F 69.1 °F 85% 30.04 in 10.0 mi ENE 6.9 mph - N/A   Scattered Clouds
7:53 AM 74.8 °F 70.0 °F 85% 30.06 in 10.0 mi ENE 10.4 mph - N/A   Mostly Cloudy
8:53 AM 76.5 °F 71.1 °F 83% 30.08 in 10.0 mi ENE 10.4 mph - N/A   Scattered Clouds
9:10 AM - - N/A% 30.09 in 9.0 mi East 9.2 mph - N/A   Mostly Cloudy
9:42 AM - - N/A% 30.09 in 10.0 mi ENE 10.4 mph - N/A   Mostly Cloudy
9:50 AM 77.0 °F 71.6 °F 83% 30.09 in 10.0 mi East 11.5 mph - N/A   Mostly Cloudy
9:53 AM 77.4 °F 71.1 °F 81% 30.09 in 10.0 mi East 10.4 mph - N/A   Mostly Cloudy
10:53 AM - - N/A% 30.08 in 10.0 mi East 12.7 mph - N/A   Overcast
10:58 AM - - N/A% 30.08 in 10.0 mi East 10.4 mph - N/A   Overcast
11:20 AM - - N/A% 30.08 in 10.0 mi East 12.7 mph - N/A   Mostly Cloudy
11:50 AM 77.0 °F 71.6 °F 83% 30.07 in 10.0 mi East 12.7 mph - N/A   Mostly Cloudy
11:53 AM 77.2 °F 71.1 °F 81% 30.07 in 10.0 mi East 12.7 mph - N/A   Mostly Cloudy
12:34 PM 77.0 °F 71.6 °F 83% 30.06 in 10.0 mi East 12.7 mph - N/A   Mostly Cloudy
12:53 PM 77.2 °F 71.1 °F 81% 30.04 in 10.0 mi East 12.7 mph - N/A   Mostly Cloudy
1:53 PM 79.3 °F 72.0 °F 78% 30.02 in 10.0 mi East 11.5 mph - N/A   Scattered Clouds
2:53 PM 78.1 °F 71.1 °F 79% 30.02 in 10.0 mi East 13.8 mph - N/A   Clear
3:53 PM 77.0 °F 70.0 °F 79% 30.02 in 10.0 mi East 11.5 mph - N/A   Scattered Clouds
4:53 PM 77.0 °F 70.0 °F 79% 30.03 in 9.0 mi East 11.5 mph - N/A   Scattered Clouds
5:53 PM 76.1 °F 69.1 °F 79% 30.05 in 10.0 mi East 12.7 mph - N/A   Scattered Clouds
6:53 PM 75.9 °F 69.1 °F 79% 30.06 in 10.0 mi East 13.8 mph - N/A   Scattered Clouds
7:53 PM 73.4 °F 69.1 °F 86% 30.08 in 10.0 mi East 16.1 mph - N/A   Mostly Cloudy
8:53 PM 73.8 °F 68.0 °F 82% 30.09 in 10.0 mi East 15.0 mph - N/A   Partly Cloudy
9:53 PM 73.4 °F 68.0 °F 83% 30.09 in 10.0 mi East 12.7 mph - N/A   Clear
10:53 PM - - N/A% 30.11 in 10.0 mi East 15.0 mph - N/A   Overcast
11:53 PM 75.0 °F 68.0 °F 79% 30.10 in 10.0 mi ENE 15.0 mph - N/A   Overcast